📊 Raw Sensor Data
Showing records 45251 to 45275 of 85,050 total
| ID | Distance (ft) | Battery V | Battery A | Int Temp (°F) | Int Humid (%) | Ext Temp (°F) | Solar V | RSSI | SNR | Time Stamp |
|---|---|---|---|---|---|---|---|---|---|---|
| 39812 | 15.9 | 4.00 | -5 | 59 | 43 | 60 | 0.10 | -70 | 8 | 05/06/2025 01:00 AM |
| 39811 | -- | 3.94 | -5 | 59 | 43 | 61 | 0.00 | -69 | 8 | 05/06/2025 12:45 AM |
| 39810 | 15.9 | 3.94 | -5 | 59 | 43 | 62 | 0.00 | -69 | 8 | 05/06/2025 12:30 AM |
| 39809 | -- | 3.94 | -5 | 59 | 43 | 63 | 0.00 | -70 | 8 | 05/06/2025 12:15 AM |
| 39808 | 15.9 | 4.00 | -5 | 59 | 44 | 61 | 0.10 | -69 | 8 | 05/06/2025 12:00 AM |
| 39807 | -- | 4.00 | -5 | 60 | 44 | 61 | 0.00 | -68 | 8 | 05/05/2025 11:45 PM |
| 39806 | -- | 3.95 | -35 | 61 | 43 | 63 | 0.00 | -70 | 8 | 05/05/2025 11:30 PM |
| 39805 | -- | 3.95 | -5 | 61 | 44 | 64 | 0.00 | -71 | 8 | 05/05/2025 11:15 PM |
| 39804 | -- | 3.95 | -12 | 62 | 44 | 64 | 0.10 | -70 | 8 | 05/05/2025 11:00 PM |
| 39803 | 15.9 | 4.01 | -5 | 63 | 44 | 65 | 0.00 | -69 | 8 | 05/05/2025 10:45 PM |
| 39802 | 15.9 | 3.95 | -32 | 63 | 44 | 65 | 0.00 | -69 | 8 | 05/05/2025 10:30 PM |
| 39801 | 15.9 | 3.95 | -5 | 63 | 45 | 65 | 0.00 | -69 | 8 | 05/05/2025 10:15 PM |
| 39800 | 15.9 | 3.95 | -5 | 63 | 45 | 65 | 0.00 | -69 | 8 | 05/05/2025 10:00 PM |
| 39799 | 16.0 | 3.95 | -5 | 64 | 46 | 65 | 0.00 | -68 | 8 | 05/05/2025 09:45 PM |
| 39798 | -- | 3.95 | -5 | 65 | 47 | 66 | 0.00 | -69 | 8 | 05/05/2025 09:30 PM |
| 39797 | -- | 3.95 | -5 | 67 | 47 | 66 | 0.00 | -69 | 8 | 05/05/2025 09:15 PM |
| 39796 | 15.9 | 3.95 | -5 | 69 | 47 | 70 | 0.00 | -69 | 8 | 05/05/2025 09:00 PM |
| 39795 | -- | 4.01 | -5 | 71 | 47 | 73 | 0.00 | -70 | 7 | 05/05/2025 08:45 PM |
| 39794 | 15.9 | 3.96 | -5 | 71 | 48 | 72 | 0.00 | -70 | 8 | 05/05/2025 08:30 PM |
| 39793 | -- | 3.96 | -5 | 74 | 49 | 73 | 0.60 | -71 | 8 | 05/05/2025 08:15 PM |
| 39792 | -- | 3.96 | -36 | 77 | 48 | 75 | 4.20 | -69 | 8 | 05/05/2025 08:00 PM |
| 39791 | -- | 3.97 | 0 | 80 | 47 | 76 | 4.50 | -70 | 9 | 05/05/2025 07:45 PM |
| 39790 | -- | 3.98 | -18 | 81 | 49 | 78 | 4.60 | -70 | 8 | 05/05/2025 07:30 PM |
| 39789 | 16.0 | 4.05 | 8 | 83 | 49 | 79 | 4.50 | -69 | 7 | 05/05/2025 07:16 PM |
| 39788 | 16.1 | 4.06 | 0 | 86 | 48 | 80 | 4.50 | -70 | 8 | 05/05/2025 07:00 PM |